Location: Catacaguana
(10.4120°N, 66.7591°W)
Time: 21:31:59
(UTC+00:00)

FengYun 1-2 T - Pass Details

Date: 29 January 2023
Orbit: 846 x 880 km, 98.7° (Epoch: 28 March)

Event Time Altitude Azimuth Distance (km) Brightness Sun altitude
Rises 09:38:21 0° 15° (NNE) 3,450 7.4 -17.7°
Reaches altitude 10° 09:40:44 10° 16° (NNE) 2,517 6.7 -17.2°
Maximum altitude 09:46:20 78° 103° (ESE) 898 4.4 -15.9°
Drops below altitude 10° 09:51:59 10° 189° (S) 2,530 6.8 -14.5°
Sets 09:54:22 0° 190° (S) 3,469 7.5 -14.0°
